Weather History for KAZO - January, 2012

Change the Weather History Date:

Sunday, January 8, 2012

  Actual Average Record
Temperature  
Mean Temperature 31 °F 24 °F  
Max Temperature 39 °F 31 °F - ()
Min Temperature 22 °F 18 °F - ()
Degree Days  
Heating Degree Days 34 40  
Month to date heating degree days 320  
Since 1 July heating degree days 2771  
Cooling Degree Days 0 0  
Month to date cooling degree days 0  
Year to date cooling degree days 0  
Moisture  
Dew Point 24 °F    
Average Humidity 78    
Maximum Humidity 96    
Minimum Humidity 53    
Precipitation  
Precipitation 0.00 in 0.06 in - ()
Month to date precipitation 0.09 0.49  
Year to date precipitation 0.49  
Sea Level Pressure  
Sea Level Pressure 30.33 in    
Wind  
Wind Speed 2 mph (SSW)    
Max Wind Speed 9 mph    
Max Gust Speed 13 mph    
Visibility 9 miles    
Events      
T = Trace of Precipitation, MM = Missing Value Source: NWS Daily Summary

Daily Weather History Graph

Daily Weather History Graph

Search for Another Location

Airport or City:

Trip Planner

Search our weather history database for the weather conditions in past years. The results will help you decide how hot, cold, wet, or windy it might be!

Date:

Astronomy

Jan. 08, 2012 Rise Set
Actual Time 8:10 AM EST 5:27 PM EST
Civil Twilight 7:39 AM EST 5:58 PM EST
Nautical Twilight 7:04 AM EST 6:33 PM EST
Astronomical Twilight 6:30 AM EST 7:07 PM EST
Moon 5:09 PM EST (1/8) 7:28 AM EST (1/8)
Length of Visible Light 10h 19m
Length of Day
9h 16m
Full, 100% of the Moon is Illuminated
Jan 8
Full
Jan 9
Full
Jan 16
Last Quarter
Jan 23
New
Jan 30
First Quarter

Hourly Weather History & Observations

Time (EST) Temp. Windchill Dew Point Humidity Pressure Visibility Wind Dir Wind Speed Gust Speed Precip Events Conditions
12:53 AM 30.0 °F 26.5 °F 26.1 °F 85% 30.24 in 10.0 mi SW 3.5 mph - N/A   Mostly Cloudy
1:53 AM 28.9 °F - 24.1 °F 82% 30.25 in 10.0 mi Calm Calm - N/A   Clear
2:53 AM 26.1 °F - 23.0 °F 88% 30.27 in 10.0 mi Calm Calm - N/A   Clear
3:53 AM 25.0 °F - 23.0 °F 92% 30.29 in 7.0 mi Calm Calm - N/A   Clear
4:53 AM 26.1 °F - 24.1 °F 92% 30.30 in 7.0 mi Calm Calm - N/A   Clear
5:53 AM 26.1 °F - 24.1 °F 92% 30.31 in 10.0 mi Calm Calm - N/A   Overcast
6:53 AM 24.1 °F - 21.9 °F 91% 30.33 in 9.0 mi Calm Calm - N/A   Clear
7:53 AM 24.1 °F - 21.0 °F 88% 30.34 in 7.0 mi Calm Calm - N/A   Clear
8:53 AM 24.1 °F - 23.0 °F 96% 30.35 in 7.0 mi Calm Calm - N/A   Clear
9:53 AM 30.0 °F 25.2 °F 26.1 °F 85% 30.37 in 10.0 mi South 4.6 mph - N/A   Clear
10:53 AM 33.1 °F 30.0 °F 25.0 °F 72% 30.39 in 10.0 mi South 3.5 mph - N/A   Clear
11:53 AM 35.1 °F 30.1 °F 25.0 °F 67% 30.38 in 10.0 mi SSE 5.8 mph - N/A   Clear
12:53 PM 37.9 °F 32.7 °F 25.0 °F 60% 30.35 in 10.0 mi SSW 6.9 mph - N/A   Clear
1:53 PM 37.9 °F 34.4 °F 21.9 °F 53% 30.35 in 10.0 mi Variable 4.6 mph - N/A   Clear
2:53 PM 39.0 °F 34.0 °F 24.1 °F 55% 30.33 in 10.0 mi WSW 6.9 mph - N/A   Clear
3:53 PM 37.4 °F 32.8 °F 24.8 °F 60% 30.31 in 10.0 mi SW 5.8 mph - N/A   Clear
4:53 PM 36.0 °F 33.3 °F 25.0 °F 64% 30.34 in 10.0 mi WSW 3.5 mph - N/A   Clear
5:53 PM 36.0 °F - 24.1 °F 62% 30.35 in 10.0 mi Calm Calm - N/A   Clear
6:53 PM 33.1 °F - 25.0 °F 72% 30.35 in 10.0 mi Calm Calm - N/A   Clear
7:53 PM 30.9 °F - 25.0 °F 79% 30.35 in 10.0 mi Calm Calm - N/A   Clear
8:53 PM 30.9 °F - 25.0 °F 79% 30.34 in 10.0 mi Calm Calm - N/A   Clear
9:53 PM 30.0 °F - 25.0 °F 82% 30.32 in 10.0 mi Calm Calm - N/A   Clear
10:53 PM 28.0 °F 24.2 °F 24.1 °F 85% 30.31 in 10.0 mi South 3.5 mph - N/A   Clear
11:53 PM 28.0 °F 24.2 °F 25.0 °F 88% 30.31 in 9.0 mi SSW 3.5 mph - N/A   Clear